Weather History for Eagle Creek, IN

Change the Weather History Date:

Saturday, June 29, 2013

  Actual Average Record
Temperature  
Mean Temperature 68 °F 75 °F  
Max Temperature 72 °F 84 °F 101 °F (2012)
Min Temperature 63 °F 67 °F 54 °F (2004)
Degree Days  
Heating Degree Days 0 0  
Month to date heating degree days 14 12  
Since 1 June heating degree days 14 12  
Since 1 July heating degree days 5564 5346  
Cooling Degree Days 3 10  
Month to date cooling degree days 200 224  
Year to date cooling degree days 311 308  
Since 1 June cooling degree days 200 224  
Growing Degree Days 17 (Base 50)    
Moisture  
Dew Point 64 °F    
Average Humidity 89    
Maximum Humidity 100    
Minimum Humidity 78    
Precipitation  
Precipitation 0.31 in 0.14 in 0.62 in (2005)
Month to date precipitation 4.88 4.27  
Year to date precipitation 23.72 21.08  
Sea Level Pressure  
Sea Level Pressure 29.62 in    
Wind  
Wind Speed 3 mph (NW)    
Max Wind Speed 8 mph    
Max Gust Speed 17 mph    
Visibility 8 miles    
Events Rain , Thunderstorm    
T = Trace of Precipitation, MM = Missing Value Source: NWS Daily Summary

Daily Weather History Graph

Daily Weather History Graph

Search for Another Location

Airport:

Trip Planner

Search our weather history database for the weather conditions in past years. The results will help you decide how hot, cold, wet, or windy it might be!

Date:

Astronomy

Jun. 29, 2013 Rise Set
Actual Time 6:19 AM EDT 9:17 PM EDT
Civil Twilight 5:47 AM EDT 9:50 PM EDT
Nautical Twilight 5:05 AM EDT 10:31 PM EDT
Astronomical Twilight 4:17 AM EDT 11:19 PM EDT
Moon 12:46 AM EDT (6/29) 1:30 PM EDT (6/29)
Length of Visible Light 16h 02m
Length of Day
14h 57m
Waning Gibbous, 56% of the Moon is Illuminated
Jun 29
Waning Gibbous
Jun 30
Last Quarter
Jul 8
New
Jul 15
First Quarter
Jul 22
Full

Hourly Weather History & Observations

Time (EDT) Temp. Dew Point Humidity Pressure Visibility Wind Dir Wind Speed Gust Speed Precip Events Conditions
12:53 AM 64.9 °F 62.1 °F 90% 29.61 in 10.0 mi Variable 3.5 mph - N/A   Clear
1:53 AM 64.0 °F 63.0 °F 96% 29.59 in 10.0 mi WNW 8.1 mph - N/A   Clear
2:53 AM 64.0 °F 62.1 °F 93% 29.59 in 10.0 mi Calm Calm - N/A   Clear
3:53 AM 63.0 °F 62.1 °F 97% 29.59 in 10.0 mi Calm Calm - N/A   Clear
4:53 AM 63.0 °F 62.1 °F 97% 29.58 in 10.0 mi Calm Calm - N/A   Clear
5:53 AM 63.0 °F 62.1 °F 97% 29.59 in 10.0 mi West 3.5 mph - N/A   Clear
6:53 AM 63.0 °F 62.1 °F 97% 29.59 in 10.0 mi West 4.6 mph - N/A   Clear
7:53 AM 64.9 °F 64.0 °F 97% 29.60 in 10.0 mi West 3.5 mph - N/A   Partly Cloudy
8:53 AM 66.9 °F 64.0 °F 90% 29.61 in 10.0 mi WNW 5.8 mph - N/A   Scattered Clouds
9:09 AM 66.2 °F 64.4 °F 94% 29.62 in 10.0 mi WNW 6.9 mph - N/A   Mostly Cloudy
9:33 AM 68.0 °F 64.4 °F 88% 29.62 in 10.0 mi WNW 6.9 mph - N/A   Mostly Cloudy
9:53 AM 68.0 °F 64.0 °F 87% 29.61 in 10.0 mi NW 5.8 mph - 0.00 in Rain Light Rain
10:01 AM 66.2 °F 64.4 °F 94% 29.63 in 8.0 mi NW 5.8 mph - 0.01 in Rain Light Rain
10:33 AM 66.2 °F 64.4 °F 94% 29.63 in 10.0 mi West 4.6 mph - 0.01 in   Overcast
10:53 AM 68.0 °F 64.9 °F 90% 29.61 in 10.0 mi North 4.6 mph - 0.01 in Rain Light Rain
11:11 AM 69.8 °F 64.4 °F 83% 29.62 in 10.0 mi NNW 4.6 mph - 0.00 in   Mostly Cloudy
11:53 AM 68.0 °F 64.0 °F 87% 29.61 in 9.0 mi Calm Calm - 0.00 in Rain Light Rain
12:05 PM 68.0 °F 66.2 °F 94% 29.62 in 2.5 mi SW 4.6 mph - 0.03 in Rain Rain
12:10 PM 66.2 °F 64.4 °F 94% 29.62 in 1.8 mi WSW 3.5 mph - 0.05 in Rain Rain
12:17 PM 66.2 °F 66.2 °F 100% 29.62 in 1.8 mi Calm Calm - 0.07 in Rain Rain
12:21 PM 68.0 °F 64.4 °F 88% 29.62 in 3.0 mi Calm Calm - 0.08 in Rain Light Rain
12:53 PM 71.1 °F 66.0 °F 84% 29.60 in 10.0 mi Calm Calm - 0.08 in   Overcast
1:34 PM 68.0 °F 64.4 °F 88% 29.62 in 2.0 mi West 3.5 mph - 0.03 in Rain , Thunderstorm Thunderstorms and Rain
1:42 PM 68.0 °F 64.4 °F 88% 29.62 in 1.5 mi WNW 4.6 mph - 0.08 in Rain , Thunderstorm Heavy Thunderstorms and Rain
1:47 PM 68.0 °F 64.4 °F 88% 29.62 in 3.0 mi WNW 3.5 mph - 0.08 in Rain , Thunderstorm Light Thunderstorms and Rain
1:53 PM 68.0 °F 64.9 °F 90% 29.60 in 10.0 mi WNW 3.5 mph - 0.08 in Rain , Thunderstorm Light Rain
2:01 PM 68.0 °F 64.4 °F 88% 29.61 in 10.0 mi West 3.5 mph - 0.00 in   Mostly Cloudy
2:17 PM 69.8 °F 66.2 °F 88% 29.62 in 10.0 mi Calm Calm - 0.00 in Thunderstorm Mostly Cloudy
2:53 PM 68.0 °F 66.9 °F 96% 29.62 in 5.0 mi NW 11.5 mph 17.3 mph 0.01 in Rain , Thunderstorm Light Thunderstorms and Rain
2:59 PM 66.2 °F 62.6 °F 88% 29.63 in 1.8 mi NW 6.9 mph 17.3 mph 0.09 in Rain , Thunderstorm Heavy Thunderstorms and Rain
3:09 PM 64.4 °F 62.6 °F 94% 29.62 in 2.5 mi NNW 6.9 mph - 0.13 in Rain Rain
3:17 PM 66.2 °F 64.4 °F 94% 29.62 in 9.0 mi North 6.9 mph - 0.13 in Rain Light Rain
3:32 PM 66.2 °F 64.4 °F 94% 29.63 in 10.0 mi NNE 4.6 mph - 0.13 in Thunderstorm Mostly Cloudy
3:53 PM 66.9 °F 64.0 °F 90% 29.62 in 10.0 mi ENE 3.5 mph - 0.13 in   Mostly Cloudy
4:53 PM 69.1 °F 62.1 °F 78% 29.61 in 10.0 mi NE 3.5 mph - N/A   Mostly Cloudy
5:53 PM 70.0 °F 62.1 °F 76% 29.62 in 10.0 mi NE 4.6 mph - N/A   Partly Cloudy
6:53 PM 70.0 °F 62.1 °F 76% 29.62 in 10.0 mi NE 3.5 mph - N/A   Partly Cloudy
7:53 PM 69.1 °F 63.0 °F 81% 29.62 in 10.0 mi North 5.8 mph - N/A   Clear
8:53 PM 66.9 °F 63.0 °F 87% 29.64 in 10.0 mi Calm Calm - N/A   Partly Cloudy
9:53 PM 66.9 °F 63.0 °F 87% 29.65 in 10.0 mi Calm Calm - N/A   Scattered Clouds
10:18 PM 66.2 °F 62.6 °F 88% 29.68 in 10.0 mi Calm Calm - N/A   Mostly Cloudy
10:37 PM 66.2 °F 62.6 °F 88% 29.68 in 10.0 mi North 3.5 mph - N/A   Mostly Cloudy
10:53 PM 66.0 °F 64.0 °F 93% 29.67 in 10.0 mi North 4.6 mph - N/A   Scattered Clouds
11:53 PM 66.0 °F 62.1 °F 87% 29.67 in 10.0 mi Calm Calm - N/A   Mostly Cloudy